Location: Bjelajci
(45.0103°N, 16.1758°E)
Time: 09:47:08
(UTC+00:00)

Cosmos 921 Rocket - Pass Details

Date: 14 July 2020
Orbit: 572 x 632 km, 75.8° (Epoch: 07 August)

Event Time Altitude Azimuth Distance (km) Brightness Sun altitude
Rises 02:07:21 0° 331° (NNW) 2,893 6.7 -11.0°
Reaches altitude 10° 02:09:49 10° 321° (NW) 1,973 5.7 -10.7°
Maximum altitude 02:13:37 29° 261° (W) 1,108 3.9 -10.3°
Enters shadow 02:17:09 11° 202° (SSW) 1,861 4.9 -9.8°
